User: anonymous   Login
Location: La Brionne
(46.1728°N, 1.7849°E)
Time: 19:04:31
(UTC+00:00)
Language:

Cosmos 2322 Rocket - Orbit

View from above orbital plane
View from above orbital plane
View from above satellite
View from above satellite

Ground track
Ground track

The orbit data is extracted from the following two-line orbital elements,

1 23705U 95058B   21261.55754629  .00000146  00000-0  99597-4 0  9993
2 23705  71.0246   7.7800 0010384  88.6465 271.5847 14.15150639336780
Epoch (UTC): 18 September 2021 13:22:51
Eccentricity: 0.0010384
inclination: 71.0246°
perigee height: 834 km
apogee height: 849 km
right ascension of ascending node: 7.7800°
argument of perigee: 88.6465°
revolutions per day: 14.15150639
mean anomaly at epoch: 271.5847°
orbit number at epoch: 33678

The dashed part of the orbit path shows where the satellite is in the earth's shadow,  

DLR